PUA1502 SCEL-SUMU

Flight info

Callsign PUA1502
Flight time 1h 47m
Altitude 35000
Route ALBAL7C ALBAL UM424 TOKAM
Aircraft A359/H-SDE2E3GHIJ3J4J5LM1ORWXY/LB1D1

Departure

Time 2026-05-05 00:34
Airport Comodoro Arturo Merino Benítez International Airport (SCEL)

Arrival

Time 2026-05-05 02:21
Airport Carrasco General Cesáreo L. Berisso International Airport (SUMU)
Time Latitude Longitude Altitude Speed Heading
2026-05-05 00:08 -33.39599 -70.79698 1571 ft 0 kts 174°
2026-05-05 00:22 -33.39594 -70.79699 1571 ft 4 kts 176°
2026-05-05 00:22 -33.39567 -70.79699 1571 ft 4 kts 178°
2026-05-05 00:22 -33.39546 -70.79699 1571 ft 4 kts 199°
2026-05-05 00:22 -33.39530 -70.79688 1571 ft 4 kts 241°
2026-05-05 00:23 -33.39521 -70.79660 1571 ft 4 kts 262°
2026-05-05 00:23 -33.39519 -70.79639 1571 ft 1 kts 267°
2026-05-05 00:27 -33.39520 -70.79659 1571 ft 6 kts 266°
2026-05-05 00:28 -33.39523 -70.79723 1571 ft 9 kts 266°
2026-05-05 00:28 -33.39527 -70.79811 1571 ft 12 kts 266°
2026-05-05 00:28 -33.39530 -70.79919 1571 ft 14 kts 271°
2026-05-05 00:28 -33.39503 -70.80027 1572 ft 14 kts 321°
2026-05-05 00:29 -33.39404 -70.80048 1572 ft 16 kts 356°
2026-05-05 00:29 -33.39288 -70.80058 1572 ft 18 kts 358°
2026-05-05 00:29 -33.39156 -70.80065 1573 ft 20 kts 357°
2026-05-05 00:29 -33.39010 -70.80074 1573 ft 22 kts 357°
2026-05-05 00:30 -33.38852 -70.80084 1573 ft 24 kts 356°
2026-05-05 00:30 -33.38680 -70.80093 1573 ft 26 kts 358°
2026-05-05 00:30 -33.38497 -70.80101 1573 ft 27 kts 358°
2026-05-05 00:30 -33.38303 -70.80111 1572 ft 29 kts 357°
2026-05-05 00:31 -33.38097 -70.80122 1572 ft 30 kts 357°
2026-05-05 00:31 -33.37881 -70.80134 1572 ft 32 kts 357°
2026-05-05 00:31 -33.37657 -70.80146 1573 ft 33 kts 357°
2026-05-05 00:31 -33.37426 -70.80157 1573 ft 34 kts 358°
2026-05-05 00:32 -33.37190 -70.80167 1573 ft 31 kts 355°
2026-05-05 00:32 -33.37125 -70.80334 1580 ft 23 kts 234°
2026-05-05 00:32 -33.37211 -70.80368 1579 ft 0 kts 181°
2026-05-05 00:33 -33.37400 -70.80364 1580 ft 65 kts 178°
2026-05-05 00:33 -33.38087 -70.80326 1578 ft 131 kts 177°
2026-05-05 00:34 -33.39177 -70.80265 1739 ft 172 kts 177°
2026-05-05 00:34 -33.40334 -70.80195 2652 ft 163 kts 177°
2026-05-05 00:34 -33.41492 -70.80133 3315 ft 175 kts 176°
2026-05-05 00:34 -33.42815 -70.80061 3618 ft 206 kts 176°
2026-05-05 00:35 -33.44316 -70.79981 3934 ft 228 kts 177°
2026-05-05 00:35 -33.45936 -70.79895 4495 ft 241 kts 177°
2026-05-05 00:35 -33.47685 -70.79802 4985 ft 260 kts 177°
2026-05-05 00:35 -33.49549 -70.79702 5724 ft 269 kts 177°
2026-05-05 00:36 -33.51414 -70.79602 6496 ft 276 kts 178°
2026-05-05 00:36 -33.53356 -70.79498 7273 ft 282 kts 178°
2026-05-05 00:36 -33.55326 -70.79332 8172 ft 286 kts 175°
2026-05-05 00:36 -33.57315 -70.79069 9137 ft 289 kts 175°
2026-05-05 00:37 -33.59326 -70.78799 10073 ft 293 kts 175°
2026-05-05 00:37 -33.61367 -70.78536 10926 ft 297 kts 176°
2026-05-05 00:37 -33.63441 -70.78277 11790 ft 302 kts 176°
2026-05-05 00:37 -33.65541 -70.78018 12688 ft 306 kts 177°
2026-05-05 00:38 -33.67672 -70.77758 13588 ft 310 kts 177°
2026-05-05 00:38 -33.69828 -70.77495 14425 ft 314 kts 178°
2026-05-05 00:38 -33.72010 -70.77231 15236 ft 317 kts 178°
2026-05-05 00:38 -33.74212 -70.76963 16065 ft 319 kts 179°
2026-05-05 00:39 -33.76437 -70.76693 16865 ft 322 kts 179°
2026-05-05 00:39 -33.78677 -70.76385 17648 ft 328 kts 176°
2026-05-05 00:39 -33.80899 -70.75603 18394 ft 339 kts 160°
2026-05-05 00:39 -33.82881 -70.74000 19042 ft 351 kts 140°
2026-05-05 00:40 -33.84375 -70.71640 19689 ft 360 kts 120°
2026-05-05 00:40 -33.85480 -70.68903 20317 ft 367 kts 116°
2026-05-05 00:40 -33.86527 -70.66078 20947 ft 373 kts 116°
2026-05-05 00:40 -33.87591 -70.63216 21586 ft 377 kts 116°
2026-05-05 00:41 -33.88681 -70.60315 22229 ft 382 kts 117°
2026-05-05 00:41 -33.89792 -70.57382 22838 ft 388 kts 117°
2026-05-05 00:41 -33.90920 -70.54411 23522 ft 392 kts 118°
2026-05-05 00:41 -33.92065 -70.51403 24032 ft 399 kts 118°
2026-05-05 00:42 -33.93228 -70.48348 24582 ft 402 kts 118°
2026-05-05 00:42 -33.94396 -70.45273 25086 ft 406 kts 118°
2026-05-05 00:42 -33.95576 -70.42164 25618 ft 410 kts 118°
2026-05-05 00:42 -33.96772 -70.39014 26111 ft 417 kts 118°
2026-05-05 00:43 -33.97980 -70.35827 26701 ft 419 kts 118°
2026-05-05 00:43 -33.99193 -70.32627 27282 ft 422 kts 118°
2026-05-05 00:43 -34.00419 -70.29388 27762 ft 428 kts 118°
2026-05-05 00:43 -34.01659 -70.26108 28258 ft 432 kts 119°
2026-05-05 00:44 -34.02910 -70.22798 28794 ft 435 kts 118°
2026-05-05 00:44 -34.04153 -70.19506 29311 ft 439 kts 118°
2026-05-05 00:44 -34.05416 -70.16154 29946 ft 439 kts 118°
2026-05-05 00:44 -34.06675 -70.12808 30501 ft 437 kts 118°
2026-05-05 00:45 -34.07928 -70.09472 30964 ft 436 kts 118°
2026-05-05 00:45 -34.09181 -70.06140 31413 ft 437 kts 118°
2026-05-05 00:45 -34.10435 -70.02799 31915 ft 437 kts 118°
2026-05-05 00:45 -34.11685 -69.99466 32440 ft 434 kts 118°
2026-05-05 00:46 -34.12925 -69.96154 32999 ft 432 kts 118°
2026-05-05 00:46 -34.14155 -69.92866 33565 ft 428 kts 118°
2026-05-05 00:46 -34.15374 -69.89605 34080 ft 425 kts 118°
2026-05-05 00:46 -34.16586 -69.86360 34492 ft 423 kts 118°
2026-05-05 00:47 -34.17737 -69.83098 34881 ft 423 kts 114°
2026-05-05 00:47 -34.18593 -69.79689 35046 ft 425 kts 105°
2026-05-05 00:47 -34.19209 -69.76197 35062 ft 424 kts 103°
2026-05-05 00:48 -34.20172 -69.69201 35038 ft 421 kts 101°
2026-05-05 00:48 -34.21058 -69.62238 35026 ft 418 kts 101°
2026-05-05 00:49 -34.21971 -69.55343 34993 ft 414 kts 101°
2026-05-05 00:49 -34.22900 -69.48501 34977 ft 411 kts 101°
2026-05-05 00:50 -34.23827 -69.41706 34951 ft 409 kts 101°
2026-05-05 00:50 -34.24739 -69.34992 34927 ft 407 kts 101°
2026-05-05 00:51 -34.25649 -69.28248 34921 ft 406 kts 100°
2026-05-05 00:51 -34.26553 -69.21517 34908 ft 406 kts 100°
2026-05-05 00:52 -34.27454 -69.14775 34897 ft 407 kts 100°
2026-05-05 00:52 -34.28355 -69.08010 34889 ft 408 kts 99°
2026-05-05 00:53 -34.29104 -69.02373 34893 ft 409 kts 100°
2026-05-05 00:53 -34.30151 -68.94415 34894 ft 411 kts 99°
2026-05-05 00:54 -34.30887 -68.88736 34887 ft 412 kts 99°
2026-05-05 00:54 -34.31773 -68.81894 34888 ft 412 kts 99°
2026-05-05 00:55 -34.32658 -68.75043 34891 ft 412 kts 99°
2026-05-05 00:55 -34.33541 -68.68183 34890 ft 413 kts 99°
2026-05-05 00:56 -34.34421 -68.61310 34880 ft 414 kts 98°
2026-05-05 00:56 -34.35299 -68.54428 34880 ft 414 kts 98°
2026-05-05 00:57 -34.36174 -68.47539 34874 ft 414 kts 98°
2026-05-05 00:57 -34.37044 -68.40650 34869 ft 414 kts 98°
2026-05-05 00:58 -34.37913 -68.33746 34866 ft 415 kts 98°
2026-05-05 00:58 -34.38778 -68.26838 34866 ft 415 kts 98°
2026-05-05 00:59 -34.39640 -68.19916 34866 ft 416 kts 98°
2026-05-05 00:59 -34.40499 -68.12988 34867 ft 416 kts 98°
2026-05-05 01:00 -34.41356 -68.06047 34866 ft 417 kts 98°
2026-05-05 01:00 -34.42209 -67.99102 34864 ft 417 kts 98°
2026-05-05 01:01 -34.43060 -67.92143 34864 ft 418 kts 98°
2026-05-05 01:01 -34.43906 -67.85186 34860 ft 418 kts 98°
2026-05-05 01:02 -34.44750 -67.78217 34854 ft 418 kts 98°
2026-05-05 01:02 -34.45569 -67.71238 34855 ft 419 kts 97°
2026-05-05 01:03 -34.46374 -67.64246 34852 ft 419 kts 97°
2026-05-05 01:03 -34.47179 -67.57244 34855 ft 420 kts 97°
2026-05-05 01:04 -34.47984 -67.50232 34853 ft 421 kts 97°
2026-05-05 01:04 -34.49190 -67.39681 34857 ft 422 kts 97°
2026-05-05 01:05 -34.49989 -67.32639 34860 ft 422 kts 97°
2026-05-05 01:05 -34.50785 -67.25590 34856 ft 422 kts 97°
2026-05-05 01:06 -34.51578 -67.18534 34856 ft 422 kts 97°
2026-05-05 01:06 -34.52371 -67.11475 34853 ft 423 kts 97°
2026-05-05 01:07 -34.53153 -67.04407 34858 ft 424 kts 96°
2026-05-05 01:07 -34.53548 -67.00820 34858 ft 435 kts 96°
2026-05-05 01:07 -34.53952 -66.97142 34856 ft 445 kts 96°
2026-05-05 01:08 -34.54365 -66.93372 34856 ft 456 kts 96°
2026-05-05 01:08 -34.54782 -66.89564 34854 ft 467 kts 96°
2026-05-05 01:08 -34.55220 -66.85565 34854 ft 478 kts 96°
2026-05-05 01:08 -34.55661 -66.81522 34856 ft 489 kts 96°
2026-05-05 01:09 -34.56556 -66.73286 34862 ft 498 kts 96°
2026-05-05 01:09 -34.57456 -66.64953 34867 ft 498 kts 96°
2026-05-05 01:10 -34.58350 -66.56618 34870 ft 498 kts 96°
2026-05-05 01:10 -34.59237 -66.48273 34871 ft 499 kts 96°
2026-05-05 01:11 -34.60121 -66.39916 34871 ft 499 kts 96°
2026-05-05 01:11 -34.60999 -66.31550 34874 ft 500 kts 96°
2026-05-05 01:12 -34.61873 -66.23169 34873 ft 500 kts 96°
2026-05-05 01:12 -34.62741 -66.14788 34879 ft 501 kts 96°
2026-05-05 01:13 -34.63604 -66.06394 34880 ft 502 kts 96°
2026-05-05 01:13 -34.64464 -65.97976 34877 ft 502 kts 96°
2026-05-05 01:14 -34.65318 -65.89562 34879 ft 502 kts 96°
2026-05-05 01:14 -34.66166 -65.81139 34880 ft 502 kts 96°
2026-05-05 01:15 -34.67009 -65.72715 34879 ft 502 kts 96°
2026-05-05 01:15 -34.67847 -65.64284 34882 ft 503 kts 96°
2026-05-05 01:16 -34.68678 -65.55856 34883 ft 503 kts 96°
2026-05-05 01:16 -34.69505 -65.47408 34883 ft 503 kts 96°
2026-05-05 01:17 -34.70326 -65.38967 34883 ft 503 kts 96°
2026-05-05 01:17 -34.71145 -65.30515 34884 ft 504 kts 96°
2026-05-05 01:18 -34.71951 -65.22058 34885 ft 504 kts 96°
2026-05-05 01:18 -34.72751 -65.13600 34884 ft 504 kts 96°
2026-05-05 01:19 -34.73543 -65.05190 34884 ft 504 kts 96°
2026-05-05 01:19 -34.74335 -64.96725 34886 ft 504 kts 96°
2026-05-05 01:20 -34.75122 -64.88251 34890 ft 504 kts 96°
2026-05-05 01:20 -34.75902 -64.79783 34892 ft 504 kts 96°
2026-05-05 01:21 -34.76677 -64.71306 34891 ft 504 kts 96°
2026-05-05 01:21 -34.77447 -64.62831 34891 ft 504 kts 96°
2026-05-05 01:22 -34.78223 -64.54358 34889 ft 504 kts 96°
2026-05-05 01:22 -34.78993 -64.45881 34890 ft 504 kts 96°
2026-05-05 01:23 -34.79757 -64.37402 34891 ft 504 kts 96°
2026-05-05 01:23 -34.80514 -64.28924 34894 ft 504 kts 96°
2026-05-05 01:24 -34.81266 -64.20442 34891 ft 504 kts 96°
2026-05-05 01:24 -34.82012 -64.11967 34893 ft 504 kts 96°
2026-05-05 01:25 -34.82751 -64.03491 34894 ft 503 kts 96°
2026-05-05 01:25 -34.83485 -63.95023 34895 ft 503 kts 96°
2026-05-05 01:26 -34.84211 -63.86547 34893 ft 503 kts 96°
2026-05-05 01:26 -34.84929 -63.78074 34895 ft 503 kts 96°
2026-05-05 01:27 -34.85642 -63.69595 34897 ft 503 kts 96°
2026-05-05 01:27 -34.86350 -63.61120 34898 ft 503 kts 96°
2026-05-05 01:28 -34.87053 -63.52641 34900 ft 503 kts 96°
2026-05-05 01:28 -34.87758 -63.44162 34900 ft 503 kts 96°
2026-05-05 01:29 -34.88455 -63.35682 34898 ft 503 kts 96°
2026-05-05 01:29 -34.89145 -63.27201 34902 ft 503 kts 96°
2026-05-05 01:30 -34.89830 -63.18723 34901 ft 503 kts 96°
2026-05-05 01:30 -34.90505 -63.10296 34905 ft 503 kts 96°
2026-05-05 01:31 -34.91184 -63.01752 34904 ft 503 kts 96°
2026-05-05 01:31 -34.91847 -62.93330 34906 ft 503 kts 96°
2026-05-05 01:32 -34.92509 -62.84846 34908 ft 503 kts 96°
2026-05-05 01:32 -34.93164 -62.76366 34910 ft 503 kts 96°
2026-05-05 01:33 -34.93814 -62.67883 34912 ft 503 kts 96°
2026-05-05 01:33 -34.94457 -62.59400 34910 ft 503 kts 95°
2026-05-05 01:34 -34.95086 -62.50911 34913 ft 503 kts 95°
2026-05-05 01:34 -34.95708 -62.42432 34920 ft 502 kts 95°
2026-05-05 01:35 -34.96325 -62.33949 34917 ft 502 kts 95°
2026-05-05 01:35 -34.96882 -62.25466 34915 ft 502 kts 93°
2026-05-05 01:36 -34.97140 -62.16956 34916 ft 502 kts 91°
2026-05-05 01:36 -34.97343 -62.08445 34918 ft 502 kts 92°
2026-05-05 01:37 -34.97584 -61.99940 34923 ft 502 kts 92°
2026-05-05 01:37 -34.97848 -61.91432 34921 ft 502 kts 92°
2026-05-05 01:38 -34.98068 -61.84355 34918 ft 502 kts 92°
2026-05-05 01:38 -34.98327 -61.75793 34922 ft 502 kts 92°
2026-05-05 01:39 -34.98575 -61.67351 34922 ft 502 kts 92°
2026-05-05 01:39 -34.98819 -61.58838 34922 ft 502 kts 92°
2026-05-05 01:40 -34.99053 -61.50330 34924 ft 502 kts 92°
2026-05-05 01:40 -34.99274 -61.41826 34925 ft 502 kts 92°
2026-05-05 01:41 -34.99489 -61.33312 34929 ft 502 kts 92°
2026-05-05 01:41 -34.99700 -61.24800 34928 ft 502 kts 92°
2026-05-05 01:42 -34.99905 -61.16295 34929 ft 502 kts 92°
2026-05-05 01:42 -35.00104 -61.07786 34927 ft 502 kts 92°
2026-05-05 01:43 -35.00297 -60.99279 34927 ft 502 kts 92°
2026-05-05 01:43 -35.00485 -60.90766 34928 ft 502 kts 92°
2026-05-05 01:44 -35.00666 -60.82260 34929 ft 502 kts 92°
2026-05-05 01:44 -35.00842 -60.73763 34925 ft 502 kts 92°
2026-05-05 01:45 -35.01011 -60.65255 34928 ft 501 kts 92°
2026-05-05 01:45 -35.01174 -60.56750 34928 ft 501 kts 92°
2026-05-05 01:46 -35.01332 -60.48249 34934 ft 501 kts 92°
2026-05-05 01:46 -35.01484 -60.39750 34931 ft 501 kts 92°
2026-05-05 01:47 -35.01628 -60.31311 34936 ft 501 kts 92°
2026-05-05 01:47 -35.01768 -60.22813 34935 ft 501 kts 92°
2026-05-05 01:48 -35.01902 -60.14314 34934 ft 501 kts 92°
2026-05-05 01:48 -35.02029 -60.05821 34932 ft 501 kts 92°
2026-05-05 01:49 -35.02151 -59.97326 34936 ft 501 kts 92°
2026-05-05 01:49 -35.02267 -59.88840 34935 ft 500 kts 92°
2026-05-05 01:50 -35.02377 -59.80348 34937 ft 500 kts 92°
2026-05-05 01:50 -35.02481 -59.71868 34935 ft 500 kts 92°
2026-05-05 01:51 -35.02469 -59.63382 34938 ft 501 kts 85°
2026-05-05 01:51 -35.01273 -59.55018 34938 ft 500 kts 77°
2026-05-05 01:52 -34.99775 -59.46728 34937 ft 501 kts 76°
2026-05-05 01:52 -34.98231 -59.38455 34940 ft 501 kts 76°
2026-05-05 01:53 -34.96710 -59.30226 34936 ft 501 kts 77°
2026-05-05 01:53 -34.95188 -59.21942 34932 ft 501 kts 77°
2026-05-05 01:54 -34.93665 -59.13666 34934 ft 500 kts 77°
2026-05-05 01:54 -34.92137 -59.05393 34933 ft 500 kts 77°
2026-05-05 01:55 -34.91366 -59.01238 34767 ft 509 kts 77°
2026-05-05 01:55 -34.90574 -58.96974 34671 ft 523 kts 77°
2026-05-05 01:55 -34.89758 -58.92601 34608 ft 536 kts 77°
2026-05-05 01:55 -34.88925 -58.88139 34471 ft 543 kts 77°
2026-05-05 01:56 -34.88089 -58.83661 34236 ft 541 kts 77°
2026-05-05 01:56 -34.87254 -58.79201 34001 ft 540 kts 76°
2026-05-05 01:56 -34.86419 -58.74753 33743 ft 538 kts 76°
2026-05-05 01:56 -34.85586 -58.70325 33474 ft 536 kts 76°
2026-05-05 01:57 -34.84755 -58.65920 33221 ft 533 kts 76°
2026-05-05 01:57 -34.83927 -58.61537 32901 ft 528 kts 76°
2026-05-05 01:57 -34.83107 -58.57208 32449 ft 522 kts 76°
2026-05-05 01:57 -34.82396 -58.52889 31945 ft 519 kts 82°
2026-05-05 01:58 -34.81883 -58.48558 31458 ft 515 kts 82°
2026-05-05 01:58 -34.81421 -58.44255 30961 ft 511 kts 83°
2026-05-05 01:58 -34.80983 -58.39970 30459 ft 508 kts 83°
2026-05-05 01:58 -34.80557 -58.35721 29966 ft 506 kts 83°
2026-05-05 01:59 -34.80132 -58.31490 29418 ft 502 kts 83°
2026-05-05 01:59 -34.79710 -58.27341 28920 ft 498 kts 83°
2026-05-05 01:59 -34.79277 -58.23128 28428 ft 494 kts 82°
2026-05-05 01:59 -34.78854 -58.19056 27948 ft 490 kts 82°
2026-05-05 02:00 -34.78425 -58.14964 27467 ft 486 kts 82°
2026-05-05 02:00 -34.77997 -58.10896 26983 ft 483 kts 82°
2026-05-05 02:00 -34.77571 -58.06864 26495 ft 479 kts 82°
2026-05-05 02:00 -34.77146 -58.02852 26021 ft 476 kts 82°
2026-05-05 02:01 -34.76722 -57.98865 25531 ft 474 kts 82°
2026-05-05 02:01 -34.76301 -57.94912 25045 ft 471 kts 82°
2026-05-05 02:01 -34.75879 -57.90971 24557 ft 468 kts 82°
2026-05-05 02:01 -34.75459 -57.87053 24069 ft 466 kts 82°
2026-05-05 02:02 -34.75040 -57.83152 23578 ft 464 kts 82°
2026-05-05 02:02 -34.74621 -57.79271 23026 ft 461 kts 82°
2026-05-05 02:02 -34.74205 -57.75424 22523 ft 457 kts 82°
2026-05-05 02:02 -34.73791 -57.71610 22018 ft 453 kts 82°
2026-05-05 02:03 -34.73379 -57.67828 21538 ft 449 kts 82°
2026-05-05 02:03 -34.72970 -57.64082 21047 ft 445 kts 82°
2026-05-05 02:03 -34.72563 -57.60371 20572 ft 441 kts 82°
2026-05-05 02:03 -34.72159 -57.56690 20083 ft 438 kts 82°
2026-05-05 02:04 -34.71811 -57.53032 19600 ft 434 kts 88°
2026-05-05 02:04 -34.71843 -57.49388 19151 ft 429 kts 94°
2026-05-05 02:04 -34.72037 -57.45779 18687 ft 426 kts 96°
2026-05-05 02:04 -34.72314 -57.42218 18221 ft 422 kts 97°
2026-05-05 02:05 -34.72629 -57.38678 17697 ft 419 kts 98°
2026-05-05 02:05 -34.72949 -57.35184 17240 ft 414 kts 98°
2026-05-05 02:05 -34.73263 -57.31720 16781 ft 409 kts 98°
2026-05-05 02:05 -34.73563 -57.28300 16325 ft 405 kts 98°
2026-05-05 02:06 -34.73852 -57.24913 15868 ft 401 kts 98°
2026-05-05 02:06 -34.74132 -57.21561 15421 ft 397 kts 98°
2026-05-05 02:06 -34.74405 -57.18241 14975 ft 393 kts 98°
2026-05-05 02:06 -34.74673 -57.14948 14539 ft 389 kts 98°
2026-05-05 02:07 -34.74937 -57.11699 14097 ft 385 kts 98°
2026-05-05 02:07 -34.75198 -57.08475 13649 ft 381 kts 98°
2026-05-05 02:07 -34.75456 -57.05287 13190 ft 376 kts 98°
2026-05-05 02:07 -34.75707 -57.02183 12765 ft 371 kts 98°
2026-05-05 02:08 -34.75957 -56.99080 12348 ft 366 kts 98°
2026-05-05 02:08 -34.76203 -56.96026 11920 ft 361 kts 98°
2026-05-05 02:08 -34.76445 -56.93005 11507 ft 356 kts 98°
2026-05-05 02:08 -34.76682 -56.90029 11090 ft 351 kts 98°
2026-05-05 02:09 -34.76917 -56.87092 10685 ft 347 kts 98°
2026-05-05 02:09 -34.77147 -56.84192 10372 ft 340 kts 97°
2026-05-05 02:09 -34.77368 -56.81387 10251 ft 327 kts 97°
2026-05-05 02:09 -34.77578 -56.78689 10105 ft 315 kts 97°
2026-05-05 02:10 -34.77786 -56.76039 9706 ft 314 kts 97°
2026-05-05 02:10 -34.78000 -56.73388 9202 ft 316 kts 97°
2026-05-05 02:10 -34.78051 -56.72929 9116 ft 315 kts 101°
2026-05-05 02:10 -34.78606 -56.70388 8792 ft 308 kts 111°
2026-05-05 02:11 -34.79315 -56.67949 8456 ft 303 kts 112°
2026-05-05 02:11 -34.80040 -56.65560 8160 ft 298 kts 112°
2026-05-05 02:11 -34.80759 -56.63218 7869 ft 293 kts 112°
2026-05-05 02:11 -34.81471 -56.60914 7589 ft 288 kts 112°
2026-05-05 02:12 -34.82173 -56.58649 7294 ft 284 kts 112°
2026-05-05 02:12 -34.83551 -56.54214 6736 ft 277 kts 112°
2026-05-05 02:12 -34.84231 -56.52023 6457 ft 275 kts 112°
2026-05-05 02:13 -34.84907 -56.49848 6163 ft 274 kts 112°
2026-05-05 02:13 -34.85578 -56.47684 5876 ft 272 kts 112°
2026-05-05 02:13 -34.86239 -56.45549 5603 ft 268 kts 112°
2026-05-05 02:13 -34.86891 -56.43443 5333 ft 264 kts 112°
2026-05-05 02:14 -34.87533 -56.41371 5072 ft 260 kts 112°
2026-05-05 02:14 -34.88167 -56.39321 4811 ft 257 kts 112°
2026-05-05 02:14 -34.88792 -56.37299 4543 ft 254 kts 112°
2026-05-05 02:14 -34.89413 -56.35289 4268 ft 253 kts 111°
2026-05-05 02:15 -34.90029 -56.33295 3979 ft 251 kts 111°
2026-05-05 02:15 -34.90641 -56.31310 3724 ft 250 kts 111°
2026-05-05 02:15 -34.91252 -56.29331 3459 ft 249 kts 111°
2026-05-05 02:15 -34.91859 -56.27361 3185 ft 246 kts 111°
2026-05-05 02:16 -34.92454 -56.25431 2996 ft 240 kts 111°
2026-05-05 02:16 -34.93016 -56.23608 2978 ft 225 kts 111°
2026-05-05 02:16 -34.93533 -56.21892 2992 ft 206 kts 109°
2026-05-05 02:16 -34.93651 -56.20242 2990 ft 185 kts 77°
2026-05-05 02:17 -34.93297 -56.18840 2985 ft 169 kts 66°
2026-05-05 02:17 -34.92700 -56.17640 2881 ft 164 kts 47°
2026-05-05 02:17 -34.92000 -56.16546 2632 ft 164 kts 50°
2026-05-05 02:17 -34.91331 -56.15424 2408 ft 163 kts 49°
2026-05-05 02:18 -34.90666 -56.14324 2170 ft 160 kts 49°
2026-05-05 02:18 -34.90007 -56.13240 1974 ft 158 kts 49°
2026-05-05 02:18 -34.89354 -56.12164 1753 ft 157 kts 48°
2026-05-05 02:18 -34.88710 -56.11104 1543 ft 153 kts 49°
2026-05-05 02:19 -34.88103 -56.10102 1364 ft 142 kts 48°
2026-05-05 02:19 -34.87534 -56.09166 1160 ft 134 kts 48°
2026-05-05 02:19 -34.86980 -56.08264 995 ft 133 kts 48°
2026-05-05 02:19 -34.86424 -56.07364 830 ft 134 kts 50°
2026-05-05 02:20 -34.85878 -56.06457 624 ft 132 kts 50°
2026-05-05 02:20 -34.85329 -56.05578 454 ft 131 kts 51°
2026-05-05 02:20 -34.84798 -56.04676 268 ft 131 kts 52°
2026-05-05 02:20 -34.84264 -56.03795 119 ft 132 kts 52°
2026-05-05 02:21 -34.83740 -56.02925 94 ft 119 kts 54°
2026-05-05 02:21 -34.83362 -56.02300 91 ft 56 kts 53°
2026-05-05 02:21 -34.83217 -56.02051 93 ft 25 kts 70°
2026-05-05 02:21 -34.83293 -56.01894 93 ft 24 kts 146°
2026-05-05 02:22 -34.83425 -56.01787 93 ft 21 kts 147°
2026-05-05 02:22 -34.83528 -56.01824 92 ft 14 kts 230°
2026-05-05 02:22 -34.83569 -56.01845 93 ft 4 kts 154°
2026-05-05 02:22 -34.83602 -56.01817 93 ft 5 kts 145°
2026-05-05 02:23 -34.83615 -56.01805 90 ft 1 kts 145°
2026-05-05 02:23 -34.83621 -56.01800 91 ft 0 kts 144°